星链-37007(STARLINK-37007)

导读

STARLINK-37007(NORAD编号68302)是SpaceX星链星座中的一颗低轨通信卫星,属于星链网络的空间段组成部分,依托星链的迭代技术架构提供全球卫星互联网接入服务。该卫星配备相控阵天线,通过多波束设计同时连接大量地面终端,提升单星通信容量。它运用多维度频谱协同策略优化利用率,还搭载光学激光星间链路,在星链网络内构建低延迟、高带宽传输路径。作为低轨卫星,其设计在轨服役寿命约4-5年,后续将由新型号卫星替换,共同支撑全球宽带覆盖的组网目标。

基本信息
目录编号:
68302
目录名称:
STARLINK-37007
国际标识:
2026-057J
轨道中心:
EARTH
卫星名称:
星链-37007
卫星全名:
星链-37007(STARLINK-37007)
卫星状态:
在轨 (已飞行177 天)
发射日期:
2026-03-20 UTC
国别 :
美国 (US)
星等 :
--
该卫星已列入 空间交会检测服务 Space Conjunction Data Service (SCDS) ,当前飞行风险评估等级: 无高风险
轨道信息
数据来源 国际轨道数据
星历时间: 2026-09-13T06:24:50+0800
11小时前
查看轨道信息
半长轴: 6843.711km
偏心率: 0.0001481
轨道倾角: 97.285°
近地点辐角 99.835°
升交点赤经 21.433°
平近点角 260.306°
近地点: 464.56km
远地点: 466.588km
周期: 93.907分钟
每日圈数: 15.334349
详细信息
固有亮度:
5
最大亮度:
2.5
卫星平台:
Starlink V1.0
覆盖范围:
全球
运营商:
太空探索技术公司
运营商所在国:
美国
制造商(研发单位):
太空探索技术公司
制造商所在国:
美国
使用方式:
暂无
卫星简介
Starlink 计划是 SpaceX 推出的全球卫星互联网项目,通过发射低轨道卫星,为全球尤其是偏远地区提供高速、低延迟的互联网服务。自 2019 年起,Starlink 已部署数千颗卫星,旨在缩小全球数字鸿沟,推动互联网普及。该项目还为军事、航空等行业提供通信支持,带来广泛经济效益。
2D轨道图
3D轨道图
轨道高度分析图
轨道倾角分析图
轨道综合分析图
查看轨道综合分析图
交会数据列表
事件ID 空间交会对象 最接近时刻(TCA) 交会距离 交会风险概率(CRP) 交会风险指数(CRI) 操作
CDM_260913-165804-791106-830221
2026-09-13T
16:58:24+0000
1.680 km
极远距离
4.101645E-6 低风险 0.47
CDM_260914-200304-831206-830221
2026-09-14T
20:03:52+0000
2.911 km
极远距离
1.206963E-6 低风险 0.37
CDM_260914-133104-846206-830221
2026-09-14T
13:31:20+0000
2.500 km
极远距离
1.020542E-6 低风险 0.35
CDM_260915-021104-809406-830221
2026-09-15T
02:11:11+0000
2.999 km
极远距离
8.205302E-7 极低风险 0.33
与全量物体交会距离演化趋势
与全量物体交会风险概率演化趋势